Time stamp,State,Mean,Min,Max
sensor.kasa_2_current_consumption
2023-06-13 15:00:00,,18.025847011305554,17.3,18.4
2023-06-13 16:00:00,,17.978163465194445,17.2,18.2
2023-06-13 17:00:00,,17.891763129972215,17.2,18.3
2023-06-13 18:00:00,,17.907803448861113,17.4,18.3
2023-06-13 19:00:00,,17.75277193225,17,18.1
2023-06-13 20:00:00,,17.876927273583334,17.3,18.1
2023-06-13 21:00:00,,17.940534234305556,17.2,18.3
2023-06-13 22:00:00,,18.010677985166666,17.4,18.5
2023-06-13 23:00:00,,17.864507977305554,17.2,18.3
2023-06-14 00:00:00,,17.900916514833334,17.2,18.3
2023-06-14 01:00:00,,17.91749132386111,17.3,18.2
2023-06-14 02:00:00,,17.94253929736111,17.2,18.1
2023-06-14 03:00:00,,17.889942459083333,17.2,18.1
2023-06-14 04:00:00,,17.88929223691667,17.2,18.3
2023-06-14 05:00:00,,17.866434936916665,17.2,18.3
2023-06-14 06:00:00,,17.835419956777773,17.2,18
2023-06-14 07:00:00,,17.880276078222227,17.2,18.1
2023-06-14 08:00:00,,17.820316008138892,17.1,18.2
2023-06-14 09:00:00,,17.821447339666673,17.2,18.4
2023-06-14 10:00:00,,17.94416956322222,17.2,18.5
2023-06-14 11:00:00,,17.985990612277778,17.3,18.4
2023-06-14 12:00:00,,18.063538498500005,17.4,18.4
2023-06-14 13:00:00,,18.099945335277777,17.4,18.7
2023-06-14 14:00:00,,18.116951270833336,17.5,18.5
2023-06-14 15:00:00,,18.08563009408333,17.5,18.6
2023-06-14 16:00:00,,18.001854524416665,17.3,18.4
2023-06-14 17:00:00,,17.96177208827778,17.3,18.3
2023-06-14 18:00:00,,17.898058948416665,17.3,18.2
2023-06-14 19:00:00,,17.67782625083333,16.8,18
2023-06-14 20:00:00,,17.73836017677778,17,18
2023-06-14 21:00:00,,17.88658591980555,17,18.3
2023-06-14 22:00:00,,17.884097292277776,17.2,18.3
2023-06-14 23:00:00,,17.858975811138883,17.1,18.2
2023-06-15 00:00:00,,17.847900742194444,17.1,18.2
2023-06-15 01:00:00,,17.835797390166665,17.2,18.2
2023-06-15 02:00:00,,17.893172270611107,17.2,18.2
2023-06-15 03:00:00,,17.860213467416667,17.1,18.3
2023-06-15 04:00:00,,17.82596331641667,17.2,18.1
2023-06-15 05:00:00,,17.837429848416665,17.1,18.1
2023-06-15 06:00:00,,17.820637491222225,17.2,18.2
2023-06-15 07:00:00,,17.827145093583336,17.1,18.2
2023-06-15 08:00:00,,17.836493017,17.2,18.2
2023-06-15 09:00:00,,17.79399088019444,17.1,18.2
2023-06-15 10:00:00,,17.834290577361113,17.1,18.2
2023-06-15 11:00:00,,17.97931141338889,17.4,18.4
2023-06-15 12:00:00,,18.025280154722218,17.5,18.5
2023-06-15 13:00:00,,18.062552347972225,17.5,18.4
2023-06-15 14:00:00,,18.036208619361116,17.3,18.4
2023-06-15 15:00:00,,18.011900871444443,17.2,18.3
2023-06-15 16:00:00,,18.002217024333333,17.3,18.4
2023-06-15 17:00:00,,17.974385581499998,17.3,18.4
2023-06-15 18:00:00,,17.92636940891667,17.3,18.2
2023-06-15 19:00:00,,17.857994223333336,17,20.5
2023-06-15 20:00:00,,18.037863923111114,17.4,18.4
2023-06-15 21:00:00,,17.928086493333332,17.3,18.4
2023-06-15 22:00:00,,17.77393251463889,17.3,18.1
2023-06-15 23:00:00,,17.86699639025,17.2,18.2
2023-06-16 00:00:00,,17.836236562916664,17.2,18.4
2023-06-16 01:00:00,,17.890813541972225,17.1,18.2
2023-06-16 02:00:00,,17.877910714805555,17.2,18.2
2023-06-16 03:00:00,,17.862634773861107,17.2,18.3
2023-06-16 04:00:00,,17.83348902152778,17.2,18.3
2023-06-16 05:00:00,,17.82764405197222,17.2,18.2
2023-06-16 06:00:00,,17.841107856416667,17.1,18.3
2023-06-16 07:00:00,,17.84189016094444,17.2,18.3
2023-06-16 08:00:00,,17.817365195166666,17.1,18.2
2023-06-16 09:00:00,,17.76444284333333,17,18.1
2023-06-16 10:00:00,,17.791680400055558,17.1,18.2
2023-06-16 11:00:00,,17.835565521972224,17.3,18.2
2023-06-16 12:00:00,,17.89819999372222,17.1,18.3
2023-06-16 13:00:00,,17.842504209833333,17.1,18.3
2023-06-16 14:00:00,,17.88051679736111,17.2,18.2
2023-06-16 15:00:00,,18.018670319944444,17.4,18.3
2023-06-16 16:00:00,,17.948525591833334,17.3,18.2
2023-06-16 17:00:00,,17.995774899277777,17.2,18.2
2023-06-16 18:00:00,,17.884635228527777,17.1,18.2
2023-06-16 19:00:00,,17.751800405166666,17.1,18.2
2023-06-16 20:00:00,,17.7296342405,17,18.2
2023-06-16 21:00:00,,17.699626622055554,17,17.9
2023-06-16 22:00:00,,17.85523344108333,17.2,18.1
2023-06-16 23:00:00,,17.877731487000002,17.1,18.2
2023-06-17 00:00:00,,17.848752568388885,17.1,18.2
2023-06-17 01:00:00,,17.741058978722226,17,18.2
2023-06-17 02:00:00,,17.83422347247222,17.1,18.1
2023-06-17 03:00:00,,17.77551253838889,17.2,18
2023-06-17 04:00:00,,17.744109701027778,17.1,18.1
2023-06-17 05:00:00,,17.705837414583332,17.1,18.1
2023-06-17 06:00:00,,17.83293083497222,17.1,18.2
2023-06-17 07:00:00,,17.814020858750002,17.2,18.2
2023-06-17 08:00:00,,17.67333467613889,16.9,18.1
2023-06-17 09:00:00,,17.701160311388893,17,18.2
2023-06-17 10:00:00,,17.75901860877778,17,18.2
2023-06-17 11:00:00,,17.830439677,17.1,18.3
2023-06-17 12:00:00,,17.99110409375,17.2,18.3
2023-06-17 13:00:00,,18.025202296027775,17.3,18.4
2023-06-17 14:00:00,,17.947323849666667,17.3,18.4
2023-06-17 15:00:00,,18.025502007888893,17.4,18.4
2023-06-17 16:00:00,,18.157285307861116,17.3,18.7
2023-06-17 17:00:00,,17.970741988138887,17.2,18.7
2023-06-17 18:00:00,,17.870284269555558,17.2,18.3
2023-06-17 19:00:00,,17.851655985666667,17.1,18.1
2023-06-17 20:00:00,,17.90985323872222,17.2,18.5
2023-06-17 21:00:00,,17.885733481749998,17.2,18.2
2023-06-17 22:00:00,,17.94753704058333,17.2,18.4
2023-06-17 23:00:00,,17.88523902244444,17.1,18.5
2023-06-18 00:00:00,,17.81514308597222,17.1,18.3
2023-06-18 01:00:00,,17.85441915377778,17.2,18.1
2023-06-18 02:00:00,,17.820845356416665,17.2,18.1
2023-06-18 03:00:00,,17.795838221361112,17.2,18.2
2023-06-18 04:00:00,,17.763202223944443,17.1,18.1
2023-06-18 05:00:00,,17.832019699083332,17.2,18.1
2023-06-18 06:00:00,,17.851887729166666,17.2,18.2
2023-06-18 07:00:00,,17.89127798636111,17.2,18.2
2023-06-18 08:00:00,,17.78994381875,17.2,18.2
2023-06-18 09:00:00,,17.689550055861115,17,18.1
2023-06-18 10:00:00,,17.75252192183333,17.1,18.1
2023-06-18 11:00:00,,17.855006225055558,17.2,18.1
2023-06-18 12:00:00,,17.81760944083333,17.2,18.1
2023-06-18 13:00:00,,17.864157646194446,17.1,18.3
2023-06-18 14:00:00,,17.891424683055558,17.3,18.3
2023-06-18 15:00:00,,17.828750544138895,17.3,18.1
2023-06-18 16:00:00,,17.79180048327778,17,18.2
2023-06-18 17:00:00,,17.81859213683333,17.1,18.1
2023-06-18 18:00:00,,17.89643887425,17.2,18.2
2023-06-18 19:00:00,,17.895415783222226,17.3,18.4
2023-06-18 20:00:00,,17.81519446225,17.2,18.2
2023-06-18 21:00:00,,17.84840498627778,17.2,18.2
2023-06-18 22:00:00,,17.878758326888885,17.1,18.2
2023-06-18 23:00:00,,17.87847767838889,17.3,18.2
2023-06-19 00:00:00,,17.892326454750002,17.3,18.4
2023-06-19 01:00:00,,17.800066522888887,17.1,18
2023-06-19 02:00:00,,17.829913408083332,17.2,18.1
2023-06-19 03:00:00,,17.811905723194446,17.1,18.1
2023-06-19 04:00:00,,17.83282517811111,17.2,18.2
2023-06-19 05:00:00,,17.81535241469445,17,18.3
2023-06-19 06:00:00,,17.828742942305556,17.2,18.2
2023-06-19 07:00:00,,17.89085525822222,17.2,18.3
2023-06-19 08:00:00,,18.015822676777777,17.2,18.4
2023-06-19 09:00:00,,17.932378729805553,17.3,18.3
2023-06-19 10:00:00,,17.94123730636111,17.3,18.4
2023-06-19 11:00:00,,18.004007161916668,17.2,18.5
2023-06-19 12:00:00,,17.954043438138886,17.3,18.4
2023-06-19 13:00:00,,18.029956965222222,17.4,18.4
2023-06-19 14:00:00,,18.177385072611113,17.4,18.6
2023-06-19 15:00:00,,18.06488619013889,17.4,18.5
2023-06-19 16:00:00,,17.97672572088889,17.4,18.3
2023-06-19 17:00:00,,17.923217366833335,17.3,18.2
2023-06-19 18:00:00,,17.8421186115,17.2,18.1
2023-06-19 19:00:00,,17.87834911463889,17.1,18.2
2023-06-19 20:00:00,,17.84481658547222,17.3,18.2
2023-06-19 21:00:00,,17.940165666083328,17.3,18.4
2023-06-19 22:00:00,,17.99462422438889,17.4,18.4
2023-06-19 23:00:00,,17.94546754561111,17.3,18.2
2023-06-20 00:00:00,,17.948616923083332,17.3,18.4
2023-06-20 01:00:00,,17.97068161175,17.3,18.4
2023-06-20 02:00:00,,17.946665849222224,17.3,18.3
2023-06-20 03:00:00,,17.928259424555556,17.3,18.4
2023-06-20 04:00:00,,17.922148190111113,17.3,18.3
2023-06-20 05:00:00,,17.926884180694444,17.3,18.3
2023-06-20 06:00:00,,17.87484098713889,17.2,18.1
2023-06-20 07:00:00,,17.849804567916667,17.2,18.2
2023-06-20 08:00:00,,17.906838138416667,17.3,18.1
2023-06-20 09:00:00,,17.879043992583327,17.2,18.5
2023-06-20 10:00:00,,17.89735289491667,17.3,18.3
2023-06-20 11:00:00,,17.975414971777777,17.2,18.4
2023-06-20 12:00:00,,18.017960061194447,17.4,18.4
2023-06-20 13:00:00,,17.988595544166667,17.3,18.4
2023-06-20 14:00:00,,17.93072221163889,17.3,18.3
2023-06-20 15:00:00,,17.922650081388884,17.3,18.3
2023-06-20 16:00:00,,17.838487656749997,17.2,18.2
2023-06-20 17:00:00,,17.833343442388884,17.1,18.2
2023-06-20 18:00:00,,17.928488799555552,17.2,18.3
2023-06-20 19:00:00,,17.851351316666666,17.2,18.4
2023-06-20 20:00:00,,17.859728764638888,17.2,18.4
2023-06-20 21:00:00,,17.88623038638889,17.2,18.3
2023-06-20 22:00:00,,17.828009649833337,17.2,18.2
2023-06-20 23:00:00,,17.91613820280556,17.1,18.3
2023-06-21 00:00:00,,17.88881314136111,17.2,18.3
2023-06-21 01:00:00,,17.888332174166663,17.2,18.3
2023-06-21 02:00:00,,17.82578988988889,17.1,18.2
2023-06-21 03:00:00,,17.81056260013889,17.3,18.1
2023-06-21 04:00:00,,17.80111693558333,17,18.2
2023-06-21 05:00:00,,17.869165307444444,17.3,18.3
2023-06-21 06:00:00,,17.827366488527776,17.2,18.2
2023-06-21 07:00:00,,17.74145925497222,17.1,18.1
2023-06-21 08:00:00,,17.76942635872222,17,18.2
2023-06-21 09:00:00,,17.845834367916662,17.2,18.3
2023-06-21 10:00:00,,17.892290407555556,17.4,18.3
2023-06-21 11:00:00,,17.915645815166666,17.3,18.5
2023-06-21 12:00:00,,17.85944068861111,17.2,18.3
2023-06-21 13:00:00,,18.06656098969444,17.5,18.5
2023-06-21 14:00:00,,18.068437344388887,17.4,18.5
2023-06-21 15:00:00,,17.93387143786111,17.2,18.4
2023-06-21 16:00:00,,17.918378256277776,17.2,18.4
2023-06-21 17:00:00,,17.851586417666667,17.1,18.3
2023-06-21 18:00:00,,17.814081972722224,17.2,18.2
2023-06-21 19:00:00,,17.883225375916666,17.3,18.2
2023-06-21 20:00:00,,17.887122083888887,17.2,18.6
2023-06-21 21:00:00,,18.05320896738889,17.5,18.6
2023-06-21 22:00:00,,18.10992430911111,17.4,18.5
2023-06-21 23:00:00,,17.874202151333332,17.1,18.3
2023-06-22 00:00:00,,17.92273404941667,17.3,18.4
2023-06-22 01:00:00,,17.93221635205555,17.4,18.3
2023-06-22 02:00:00,,17.93372743883333,17.2,18.1
2023-06-22 03:00:00,,17.879329427305557,17.2,18.1
2023-06-22 04:00:00,,17.916916177916665,17.2,18.4
2023-06-22 05:00:00,,17.861241003444444,17.1,18.2
2023-06-22 06:00:00,,17.86416116544444,17.3,18.2
2023-06-22 07:00:00,,17.812070930166666,17.1,18.2
2023-06-22 08:00:00,,17.802776446472222,17,18.2
2023-06-22 09:00:00,,17.81775837630555,17.1,18.2
2023-06-22 10:00:00,,17.89821775119444,17.1,18.3
2023-06-22 11:00:00,,17.870632754611112,17,18.2
2023-06-22 12:00:00,,17.784519695888886,17.1,18.2
2023-06-22 13:00:00,,17.864882377277777,17.2,18.2
2023-06-22 14:00:00,,17.855521714694444,17.2,18.1
2023-06-22 15:00:00,,17.753978187694447,17.2,18.2
2023-06-22 16:00:00,,17.684703234055554,17.1,18.1
2023-06-22 17:00:00,,17.874855537305553,17.2,18.3
2023-06-22 18:00:00,,17.79587229127778,17.2,18.2
2023-06-22 19:00:00,,17.733321704749997,17,18.2
2023-06-22 20:00:00,,17.769272181833333,17,18.2
2023-06-22 21:00:00,,17.81291874291667,17.1,18.1
2023-06-22 22:00:00,,17.69759749852778,17,18
2023-06-22 23:00:00,,17.825482519777776,17.1,18.2
2023-06-23 00:00:00,,17.759646807083335,17,18.3
2023-06-23 01:00:00,,17.763603951083336,17.1,18.1
2023-06-23 02:00:00,,17.83826285697222,17.1,18.1
2023-06-23 03:00:00,,17.78240064211111,17.1,18.1
2023-06-23 04:00:00,,17.753491216888893,17.1,18.2
2023-06-23 05:00:00,,17.743493545194443,17.1,18
2023-06-23 06:00:00,,17.795931337583337,17.1,18.1
2023-06-23 07:00:00,,17.84263876072222,17.2,18.4
2023-06-23 08:00:00,,17.845505111416667,17.2,18.2
2023-06-23 09:00:00,,17.877940137583334,17.1,18.5
2023-06-23 10:00:00,,17.87270382713889,17,18.3
2023-06-23 11:00:00,,18.023791330444446,17.4,18.4
2023-06-23 12:00:00,,18.058009441972224,17.4,18.5
2023-06-23 13:00:00,,18.012967163916667,17.2,18.5
2023-06-23 14:00:00,,18.001754277499998,17.3,18.5
2023-06-23 15:00:00,,18.04702779333333,17.3,18.5
2023-06-23 16:00:00,,18.040326185416667,17.4,18.4
2023-06-23 17:00:00,,17.892208126361112,17.2,18.4
2023-06-23 18:00:00,,17.803923482805555,17.1,18.2
2023-06-23 19:00:00,,17.89843743133333,17.2,18.4
2023-06-23 20:00:00,,17.75622295716667,17.1,18.1
2023-06-23 21:00:00,,17.80171582030711,17.1,18.3
2023-06-23 22:00:00,,17.66092707069444,17,17.9
2023-06-23 23:00:00,,17.733190881722223,17.1,18
2023-06-24 00:00:00,,17.746023433138888,17,18.2
2023-06-24 01:00:00,,17.73888614233333,17.1,18.1
2023-06-24 02:00:00,,17.744000805111106,17.1,18
2023-06-24 03:00:00,,17.704023364722225,17.1,18
2023-06-24 04:00:00,,17.738879395305556,17,18
2023-06-24 05:00:00,,17.718330968027775,17.1,18.1
2023-06-24 06:00:00,,17.80890005452778,17.2,18.2
2023-06-24 07:00:00,,17.80985277288889,17.1,18.4
2023-06-24 08:00:00,,17.69779247922222,17.1,18
2023-06-24 09:00:00,,17.785739259,17.1,18
2023-06-24 10:00:00,,17.791948791722223,17.2,18.2
2023-06-24 11:00:00,,17.90762627913889,17.3,18.2
2023-06-24 12:00:00,,18.063350192805554,17.4,18.3
2023-06-24 13:00:00,,18.131200112722226,17.5,18.5
2023-06-24 14:00:00,,18.05941628913889,17.4,18.3
2023-06-24 15:00:00,,17.927314167555554,17.3,18.2
2023-06-24 16:00:00,,17.96277286191667,17.3,18.2
2023-06-24 17:00:00,,17.91029599172222,17.3,18.4
2023-06-24 18:00:00,,17.93429703761111,17.3,18.5
2023-06-24 19:00:00,,17.8739037635,17.3,18.3
2023-06-24 20:00:00,,17.785553975777777,17.1,18.3
2023-06-24 21:00:00,,17.87150319138889,17,18.3
2023-06-24 22:00:00,,17.892369543972222,17.3,18.3
2023-06-24 23:00:00,,17.90182838813889,17.1,18.2
2023-06-25 00:00:00,,17.891449211388885,17.2,18.2
2023-06-25 01:00:00,,17.93385080175,17.2,18.3
2023-06-25 02:00:00,,17.91514062744444,17.3,18.2
2023-06-25 03:00:00,,17.906665916638886,17.2,18.1
2023-06-25 04:00:00,,17.888949671749998,17.2,18.3
2023-06-25 05:00:00,,17.786189690277777,17.1,18.1
2023-06-25 06:00:00,,17.80823537938889,17.1,18.1
2023-06-25 07:00:00,,17.819107616777778,17.1,18.2
2023-06-25 08:00:00,,17.85215974675,17.2,18.3
2023-06-25 09:00:00,,17.797803914000003,17.1,18.3
2023-06-25 10:00:00,,17.83609675897222,17.1,18.4
2023-06-25 11:00:00,,17.9145588005,17.3,18.2
2023-06-25 12:00:00,,18.03893955861111,17.3,18.4
2023-06-25 13:00:00,,18.125273268916665,17.4,18.4
2023-06-25 14:00:00,,18.048064781972222,17.3,18.5
2023-06-25 15:00:00,,18.166748352722223,17.5,18.6
2023-06-25 16:00:00,,17.977871675277775,17.3,18.3
2023-06-25 17:00:00,,17.91941749763889,17.2,18.2
2023-06-25 18:00:00,,17.807746574472223,17.1,18.1
2023-06-25 19:00:00,,17.811558923055554,17.2,18.2
2023-06-25 20:00:00,,17.796162527222226,17,18.1
2023-06-25 21:00:00,,17.865878652027778,17.2,18.5
2023-06-25 22:00:00,,17.927340597305555,17.3,18.3
2023-06-25 23:00:00,,18.005817735861108,17.5,18.4
2023-06-26 00:00:00,,17.93886578075,17.3,18.3
2023-06-26 01:00:00,,17.938766033277776,17.3,18.4
2023-06-26 02:00:00,,17.848490726777776,17.1,18.2
2023-06-26 03:00:00,,17.858016062055555,17,18.2
2023-06-26 04:00:00,,17.82989916038889,17.2,18.2
2023-06-26 05:00:00,,17.89342828983333,17.3,18.4
2023-06-26 06:00:00,,17.85490508375,17.2,18.3
2023-06-26 07:00:00,,17.85012895827778,17.2,18.3
2023-06-26 08:00:00,,17.87015761127778,17.2,18.4
2023-06-26 09:00:00,,17.87411465627778,17.2,18.2
2023-06-26 10:00:00,,17.939528723833337,17.2,18.4
2023-06-26 11:00:00,,17.953901159722225,17.3,18.4
2023-06-26 12:00:00,,18.023479092555554,17.2,18.6
2023-06-26 13:00:00,,17.995797382027774,17.5,18.5
2023-06-26 14:00:00,,17.90591167608333,17.1,18.4
2023-06-26 15:00:00,,17.980355271722225,17.3,18.5
2023-06-26 16:00:00,,17.809527738555555,17.1,18.4
2023-06-26 17:00:00,,17.845463509555554,17.1,18.3
2023-06-26 18:00:00,,17.78485247772222,16.9,18.2
2023-06-26 19:00:00,,17.78089971225,17,18.2
2023-06-26 20:00:00,,17.870498906277774,17.1,18.3
2023-06-26 21:00:00,,17.968976936944443,17.2,18.4
2023-06-26 22:00:00,,17.94643764852778,17.2,18.3
2023-06-26 23:00:00,,17.83659050836111,17.3,18.1
2023-06-27 00:00:00,,17.850817108388892,17.2,18.2
2023-06-27 01:00:00,,17.885286204416666,17.2,18.1
2023-06-27 02:00:00,,17.835142179861112,17.2,18
2023-06-27 03:00:00,,17.882346439249996,17.3,18.1
2023-06-27 04:00:00,,17.84262637880556,17.2,18.2
2023-06-27 05:00:00,,17.845572303027783,17.2,18.1
2023-06-27 06:00:00,,17.823190274166667,17.1,18.3
2023-06-27 07:00:00,,17.867224958277777,17.2,18.2
2023-06-27 08:00:00,,17.856269200666667,17.2,18.2
2023-06-27 09:00:00,,17.866912742805557,17.2,18.1
2023-06-27 10:00:00,,17.840348828305554,17.2,18.1
2023-06-27 11:00:00,,17.833850040583332,17.3,18.1
2023-06-27 12:00:00,,17.876248554277776,17.1,18.2
2023-06-27 13:00:00,,17.82481324633333,17.2,18.3
2023-06-27 14:00:00,,17.928574226777776,17.2,18.3
2023-06-27 15:00:00,,17.84804352894444,17.1,18.2
2023-06-27 16:00:00,,17.85333680975,17.2,18.2
2023-06-27 17:00:00,,17.90916195219444,17.3,18.3
2023-06-27 18:00:00,,17.76062817602778,17,18.2
2023-06-27 19:00:00,,17.78681798152778,17.1,18.3
2023-06-27 20:00:00,,17.704452623055555,16.9,18.2
2023-06-27 21:00:00,,17.783685150055558,17.2,18.2
2023-06-27 22:00:00,,17.77461045088889,17.1,18.3
2023-06-27 23:00:00,,17.792050374638887,17.1,18.2
2023-06-28 00:00:00,,17.868039138083333,17.3,18.5
2023-06-28 01:00:00,,17.885920767583332,17.2,18.3
2023-06-28 02:00:00,,17.897095667333335,17.3,18.2
2023-06-28 03:00:00,,17.88377656663889,17.3,18.2
2023-06-28 04:00:00,,17.907563134138886,17.2,18.4
2023-06-28 05:00:00,,17.844013524666664,17.3,18.1
2023-06-28 06:00:00,,17.788544432944445,17.2,18.1
2023-06-28 07:00:00,,17.868414052472225,17.2,18.3
2023-06-28 08:00:00,,17.83664236697222,17,18.2
2023-06-28 09:00:00,,17.673718709972224,16.8,18.1
2023-06-28 10:00:00,,17.69832903030556,17,18.1
2023-06-28 11:00:00,,17.775694998888884,17,18.3
2023-06-28 12:00:00,,17.822100909055553,17.1,18.2
2023-06-28 13:00:00,,17.814079549388886,17.2,18.2
2023-06-28 14:00:00,,17.947764840416667,17.3,18.5
2023-06-28 15:00:00,,17.793476664,17.2,18.3
2023-06-28 16:00:00,,17.760273128638893,17.1,18.1
2023-06-28 17:00:00,,17.694807217527778,17,18
2023-06-28 18:00:00,,17.729311063583335,17.1,18.1
2023-06-28 19:00:00,,17.778756758111115,17.2,18.1
2023-06-28 20:00:00,,17.74606366102778,17,18.1
2023-06-28 21:00:00,,17.746937666666664,17,18.1
2023-06-28 22:00:00,,17.714774803250002,17.1,18.1
2023-06-28 23:00:00,,17.81069812975,17.2,18.1
2023-06-29 00:00:00,,17.895391017166663,17.2,18.2
2023-06-29 01:00:00,,17.859311183638884,17.2,18.2
2023-06-29 02:00:00,,17.895978451333335,17.2,18.2
2023-06-29 03:00:00,,17.857664406861108,17.2,18.1
2023-06-29 04:00:00,,17.814304642527777,17.2,18.1
2023-06-29 05:00:00,,17.827920273361112,17.2,18.1
2023-06-29 06:00:00,,17.846513158194444,17.2,18.1
2023-06-29 07:00:00,,17.931664604555554,17.2,18.3
2023-06-29 08:00:00,,17.91574026763889,17.3,18.3
2023-06-29 09:00:00,,17.85481798875,17.1,18.3
2023-06-29 10:00:00,,17.86636803758333,17.1,18.3
2023-06-29 11:00:00,,17.883380173888888,17.3,18.3
2023-06-29 12:00:00,,17.900690696583336,17.3,18.3
2023-06-29 13:00:00,,17.89484054563889,17.2,18.3
2023-06-29 14:00:00,,17.891547715194445,17.1,18.1
2023-06-29 15:00:00,,17.909966641083333,17.2,18.4
2023-06-29 16:00:00,,17.850161001222222,17.1,18.2
2023-06-29 17:00:00,,17.897389171555556,17.2,18.3
2023-06-29 18:00:00,,17.808726179055554,17.2,18.2
2023-06-29 19:00:00,,17.81386363447222,17,18.1
2023-06-29 20:00:00,,17.845195477722225,17.2,18.2
2023-06-29 21:00:00,,17.92113984138889,17.2,18.2
2023-06-29 22:00:00,,17.85720065202778,17.1,18.4
2023-06-29 23:00:00,,17.835536674166665,17.2,18.2
2023-06-30 00:00:00,,17.83515556869444,17.1,18.2
2023-06-30 01:00:00,,17.782921168388885,17.1,18
2023-06-30 02:00:00,,17.79345489486111,17.2,18
2023-06-30 03:00:00,,17.82358613413889,17.1,18.1
2023-06-30 04:00:00,,17.820906583722223,17.2,18.3
2023-06-30 05:00:00,,17.79435989688889,17.1,18.2
2023-06-30 06:00:00,,17.88889608686111,17.1,18.4
2023-06-30 07:00:00,,17.889301625444446,17.3,18.3
2023-06-30 08:00:00,,17.870552412722223,17.1,18.3
2023-06-30 09:00:00,,17.889684147083333,17.3,18.2
2023-06-30 10:00:00,,17.87737793897222,17,18.4
2023-06-30 11:00:00,,18.060433039861113,17.4,18.5
2023-06-30 12:00:00,,18.136636670305553,17.5,18.5
2023-06-30 13:00:00,,17.944857972833336,17.2,18.4
2023-06-30 14:00:00,,18.053198011305557,17.3,18.6
2023-06-30 15:00:00,,18.013315275500002,17.2,18.4
2023-06-30 16:00:00,,18.01347346025,17.2,18.4
2023-06-30 17:00:00,,18.019291352944446,17.3,18.4
2023-06-30 18:00:00,,17.95349266613889,17.3,18.3
2023-06-30 19:00:00,,17.90001099911111,17.3,18.3
2023-06-30 20:00:00,,17.91023371933333,17.2,18.2
2023-06-30 21:00:00,,17.875043661027775,17.3,18.2
2023-06-30 22:00:00,,17.83891237816667,17.1,18.1
2023-06-30 23:00:00,,17.87625430788889,17.2,18.2
2023-07-01 00:00:00,,17.946105948888892,17.2,18.2
2023-07-01 01:00:00,,17.927355085416668,17.3,18.2
2023-07-01 02:00:00,,17.841290895388887,17.1,18.1
2023-07-01 03:00:00,,17.862917015138887,17.3,18.1
2023-07-01 04:00:00,,17.901254477,17.3,18.3
2023-07-01 05:00:00,,17.83698105741667,17.2,18.3
2023-07-01 06:00:00,,17.808945806083333,17.3,18.2
2023-07-01 07:00:00,,17.792951943083334,17.1,18.2
2023-07-01 08:00:00,,17.88008757069444,17.1,18.3
2023-07-01 09:00:00,,17.844935212972224,17.2,18.3
2023-07-01 10:00:00,,17.80428837497222,17.2,18.1
2023-07-01 11:00:00,,17.856487531083328,17.1,18.2
2023-07-01 12:00:00,,17.790646609305554,16.9,18.2
2023-07-01 13:00:00,,17.782881720527776,17,18.2
2023-07-01 14:00:00,,17.924024787972222,17.2,18.3
2023-07-01 15:00:00,,17.885825606,17.1,18.4
2023-07-01 16:00:00,,17.907355586694447,17.3,18.3
2023-07-01 17:00:00,,17.974509225305557,17.2,18.5
2023-07-01 18:00:00,,17.842697276861113,17.3,18.1
2023-07-01 19:00:00,,17.86188388077777,17.1,18.1
2023-07-01 20:00:00,,17.775000900555554,17.1,18.1
2023-07-01 21:00:00,,17.789420264694446,17.1,18
2023-07-01 22:00:00,,17.82169692280556,17.3,18.1
2023-07-01 23:00:00,,17.84095528958333,17.1,18.1
2023-07-02 00:00:00,,17.905358056944447,17.2,18.2
2023-07-02 01:00:00,,17.875771820166666,17.2,18.2
2023-07-02 02:00:00,,17.865095635916663,17.2,18.2
2023-07-02 03:00:00,,17.782505281972224,17.1,18
2023-07-02 04:00:00,,17.765413945749998,17.1,18
2023-07-02 05:00:00,,17.76749092066667,17.1,18.1
2023-07-02 06:00:00,,17.795157578222224,17.1,18
2023-07-02 07:00:00,,17.80988550858333,17.1,18.1
2023-07-02 08:00:00,,17.881377256805557,17.2,18.1
2023-07-02 09:00:00,,17.74918414088889,17,18.1
2023-07-02 10:00:00,,17.879515876305554,17.1,18.2
2023-07-02 11:00:00,,17.861596178833334,17.3,18.2
2023-07-02 12:00:00,,17.83778516441667,17.3,18.2
2023-07-02 13:00:00,,17.92936550952778,17.3,18.3
2023-07-02 14:00:00,,17.98066472644445,17.3,18.3
2023-07-02 15:00:00,,17.866933773222225,17.1,18.2
2023-07-02 16:00:00,,17.938943339888887,17.4,18.4
2023-07-02 17:00:00,,17.9015679975,17.3,18.2
2023-07-02 18:00:00,,17.916647213083333,17.2,18.3
2023-07-02 19:00:00,,17.72208041902778,16.9,18
2023-07-02 20:00:00,,17.704882721638885,17,18
2023-07-02 21:00:00,,17.76077160811111,17.1,18.2
2023-07-02 22:00:00,,17.77266607736111,17,18.1
2023-07-02 23:00:00,,17.840450365888888,17.2,18.3
2023-07-03 00:00:00,,17.822831142055552,17.2,18.2
2023-07-03 01:00:00,,17.784771323583332,17.1,18.1
2023-07-03 02:00:00,,17.78985825525,17.2,18.1
2023-07-03 03:00:00,,17.79616862622222,17.1,18.1
2023-07-03 04:00:00,,17.764537592527777,17.1,18.1
2023-07-03 05:00:00,,17.774751722749997,17.1,18.2
2023-07-03 06:00:00,,17.804439821111107,17.2,18.3
2023-07-03 07:00:00,,17.762423388388886,17.2,18.1
2023-07-03 08:00:00,,17.836809942749998,17.1,18.2
2023-07-03 09:00:00,,17.77957820097222,17.2,18.2
2023-07-03 10:00:00,,17.765864529722226,17.1,18.1
2023-07-03 11:00:00,,17.798322746805553,17.1,18.2